sat.trackr.live / text

‹ back to catalog

THAICOM 8

NORAD 41552 · 2016-031A

PAYLOAD ACTIVE UNKNOWN

§ Identity

Operator
Country
THAI
Launch date
2016-05-27
Launch site
AFETR
Launch vehicle
Mass (kg)
RCS (m²)
8.01

Purposes: comms

External: N2YO · Heavens-Above · Gunter

§ Orbital elements

Epoch: 2026-09-20T00:11:17.298240Z

Period
1,436.11 min
Inclination
0.0787°
Eccentricity
0.0000998
Mean motion
1.00270803 rev/d
Perigee alt
35,782.7 km
Apogee alt
35,791.1 km
Semi-major
42,165.0 km
B*
0.0000e+0
RAAN
33.9248°
Arg perigee
77.7759°
Mean anomaly
328.5331°
Rev number
3,767

§ Raw data

THAICOM 81 41552U 16031A   26263.00783910 -.00000125  00000+0  00000+0 0  99922 41552   0.0787  33.9248 0000998  77.7759 328.5331  1.00270803 37677

JSON: /api/v1/satellites/41552 · /tle

For live sub-satellite position, see the globe view (requires WebGL).

§ Visibility from observer

Set your observer location to see the next 7 days of passes ≥ 10°. The values pass through the URL so the page stays shareable.

No JS? Fill the form by hand. The geolocation button needs JavaScript.